Location: Festilli
(46.4000°N, 11.6667°E)
Time: 18:32:17
(UTC+00:00)

Cosmos 1503 Rocket - Pass Details

Date: 03 March 2021
Orbit: 753 x 790 km, 74.0° (Epoch: 15 April)

Event Time Altitude Azimuth Distance (km) Brightness Sun altitude
Rises 18:29:23 0° 336° (NNW) 3,230 7.7 -15.8°
Reaches altitude 10° 18:31:47 10° 334° (NNW) 2,296 6.9 -16.2°
Maximum altitude 18:36:57 70° 252° (WSW) 805 4.2 -17.1°
Drops below altitude 10° 18:42:03 10° 169° (S) 2,270 6.2 -17.9°
Sets 18:44:24 0° 167° (SSE) 3,191 7.0 -18.3°
Enters shadow 18:44:31 - 167° (SSE) 3,234 7.0 -18.3°
